Regional Weather Roundup
Issued by NWS Charleston, WV

Home | Current Version | Previous Version | Graphics & Text | Print | Product List | Glossary On
Versions: 1 2 3 4 5 6 7 8 9 10 11 12 13 14 15 16 17 18 19 20 21 22 23 24 25 26 27 28 29 30 31 32 33 34 35 36 37 38 39 40 41 42 43 44 45 46 47 48 49 50
503
ASUS41 KRLX 112010
RWRRLX
West Virginia Regional Weather Roundup
National Weather Service Charleston WV
300 PM EST MON DEC 11 2017

Note: "fair" indicates few or no clouds below 12,000 feet with no
significant weather and/or obstructions to visibility.

WVZ003-112100-
Northern Panhandle of West Virginia

CITY           SKY/WX    TMP DP  RH WIND       PRES   REMARKS
WHEELING       CLOUDY    38  21  50 S8        29.89F
$$

WVZ009-112100-
Northwest West Virginia

CITY           SKY/WX    TMP DP  RH WIND       PRES   REMARKS
PARKERSBURG    SUNNY     42  24  49 SW7       29.94F
$$

WVZ006-112100-
Western West Virginia

CITY           SKY/WX    TMP DP  RH WIND       PRES   REMARKS
HUNTINGTON     CLOUDY    49  25  39 SW8       29.89F
$$

WVZ015-112100-
West Central West Virginia

CITY           SKY/WX    TMP DP  RH WIND       PRES   REMARKS
CHARLESTON     PTSUNNY   49  24  37 S14       29.90F
$$

WVZ022-031-112100-
North Central West Virginia

CITY           SKY/WX    TMP DP  RH WIND       PRES   REMARKS
CLARKSBURG     CLOUDY    43  22  43 SW10      29.92F
MORGANTOWN     CLOUDY    40  20  44 SW8       29.92F
$$

WVZ025-035-042-045-112100-
Southern West Virginia

CITY           SKY/WX    TMP DP  RH WIND       PRES   REMARKS
BECKLEY        MOSUNNY   45  22  40 S8        29.91F
LOGAN            N/A     50  25  37 S6G13     29.91F
BLUEFIELD      SUNNY     46  20  35 SW10      29.92F
LEWISBURG      PTSUNNY   44  25  46 SW5       29.93F
$$

WVZ047-112100-
Northern Mountains of West Virginia

CITY           SKY/WX    TMP DP  RH WIND       PRES   REMARKS
ELKINS         MOSUNNY   44  17  33 S8        29.90F
$$

WVZ052-112100-
Eastern Panhandle of West Virginia

CITY           SKY/WX    TMP DP  RH WIND       PRES   REMARKS
MARTINSBURG    PTSUNNY   45  22  40 SW6       29.94F
PETERSBURG     CLOUDY    47  20  34 SE5       29.90F
$$




USA.gov is the U.S. government's official web portal to all federal, state and local government web resources and services.